Kenai, AK

3:19 PM AKDT on July 25, 2017 (GMT -0800)
Kenai Municipal

Weather History for PAEN - November, 2013

Change the Weather History Date:

Wednesday, November 6, 2013

  Actual Average Record
Temperature  
Mean Temperature 26 °F -  
Max Temperature 32 °F 33 °F 46 °F (1952)
Min Temperature 19 °F 18 °F -11 °F (1956)
Degree Days  
Heating Degree Days 40    
Moisture  
Dew Point 19 °F    
Average Humidity 73    
Maximum Humidity 100    
Minimum Humidity 54    
Precipitation  
Precipitation 0.00 in - - ()
Sea Level Pressure  
Sea Level Pressure 30.03 in    
Wind  
Wind Speed 3 mph (NE)    
Max Wind Speed 9 mph    
Max Gust Speed -    
Visibility 10 miles    
Events      
Averages and records for this station are not official NWS values.
T = Trace of Precipitation, MM = Missing Value Source: NWS Daily Summary

Daily Weather History Graph

Daily Weather History Graph

Search for Another Location

Airport or City:

Trip Planner

Search our weather history database for the weather conditions in past years. The results will help you decide how hot, cold, wet, or windy it might be!

Date:

Astronomy

Nov. 06, 2013 Rise Set
Actual Time 8:44 AM AKST 4:52 PM AKST
Civil Twilight 7:56 AM AKST 5:39 PM AKST
Nautical Twilight 7:05 AM AKST 6:30 PM AKST
Astronomical Twilight 6:16 AM AKST 7:20 PM AKST
Moon 12:33 PM AKST (11/6) 7:44 PM AKST (11/6)
Length of Visible Light 9h 43m
Length of Day
8h 07m
Waxing Crescent, 15% of the Moon is Illuminated
Nov 6
Waxing Crescent
Nov 9
First Quarter
Nov 17
Full
Nov 25
Last Quarter
Dec 2
New

Hourly Weather History & Observations

Time (AKST) Temp. Windchill Dew Point Humidity Pressure Visibility Wind Dir Wind Speed Gust Speed Precip Events Conditions
12:53 AM 30.0 °F 21.7 °F 17.1 °F 59% 30.02 in 10.0 mi North 9.2 mph - N/A   Scattered Clouds
1:53 AM 30.9 °F - 16.0 °F 54% 30.05 in 10.0 mi Calm Calm - N/A   Mostly Cloudy
3:53 AM 30.0 °F 26.5 °F 17.1 °F 59% 30.05 in 10.0 mi ENE 3.5 mph - N/A   Clear
4:53 AM 26.1 °F 21.9 °F 17.1 °F 69% 30.05 in 10.0 mi ENE 3.5 mph - N/A   Clear
5:53 AM 24.1 °F - 19.0 °F 81% 30.07 in 10.0 mi Calm Calm - N/A   Clear
6:53 AM 21.9 °F 15.7 °F 18.0 °F 85% 30.07 in 10.0 mi ENE 4.6 mph - N/A   Clear
7:53 AM 21.9 °F - 19.9 °F 92% 30.09 in 10.0 mi Calm Calm - N/A   Clear
8:53 AM 19.9 °F - 19.9 °F 100% 30.09 in 10.0 mi Calm Calm - N/A   Clear
9:53 AM 23.0 °F - 19.0 °F 85% 30.09 in 10.0 mi Calm Calm - N/A   Clear
10:53 AM 27.0 °F - 18.0 °F 69% 30.09 in 10.0 mi Calm Calm - N/A   Clear
11:53 AM 30.0 °F - 17.1 °F 59% 30.09 in 10.0 mi Calm Calm - N/A   Clear
12:53 PM 30.9 °F - 17.1 °F 57% 30.08 in 10.0 mi Calm Calm - N/A   Clear
1:53 PM 32.0 °F 26.4 °F 17.1 °F 54% 30.06 in 10.0 mi ENE 5.8 mph - N/A   Clear
2:53 PM 30.0 °F 25.2 °F 18.0 °F 61% 30.04 in 10.0 mi ENE 4.6 mph - N/A   Clear
3:53 PM 28.9 °F - 18.0 °F 64% 30.04 in 10.0 mi Calm Calm - N/A   Clear
4:53 PM 28.0 °F 24.2 °F 18.0 °F 66% 30.01 in 10.0 mi Variable 3.5 mph - N/A   Clear
5:53 PM 26.1 °F 18.4 °F 19.9 °F 78% 29.99 in 10.0 mi NNE 6.9 mph - N/A   Clear
6:53 PM 26.1 °F - 21.0 °F 81% 29.99 in 10.0 mi Calm Calm - N/A   Clear
7:53 PM 26.1 °F - 21.9 °F 84% 29.98 in 10.0 mi Calm Calm - N/A   Clear
8:53 PM 26.1 °F 21.9 °F 18.0 °F 71% 29.97 in 10.0 mi NNE 3.5 mph - N/A   Clear
9:53 PM 26.1 °F 21.9 °F 19.9 °F 78% 29.96 in 10.0 mi NNE 3.5 mph - N/A   Clear
10:53 PM 26.1 °F 20.5 °F 19.9 °F 78% 29.95 in 10.0 mi NNE 4.6 mph - N/A   Clear
11:53 PM 25.0 °F 18.1 °F 21.0 °F 85% 29.93 in 10.0 mi North 5.8 mph - N/A   Clear